[[{"header":{"parameterUnit":"m.s-1","parameterCategory":1,"la1":30.2991,"la2":30.254,"lo1":-89.0895,"lo2":-89.0444,"dy":0.0017,"dx":0.0017,"nx":28,"ny":28,"refTime":"2023-08-08T09:00:00:Z","depth":0,"parameterNumber":2,"parameterNumberName":"U-component_of_WINDS"},"data":[0,0,0,0,0,0,0,0,0,0,0,0,0,0,0,0,0,0,0,0,0,0,0,0,0,0,0,0,0,0,0,0,0,0,0,0,0,0,0,0,0,0,0,0,0,0,0,0,0,0,0,0,0,0,0,0,0,0,2.4013,2.4014,0,2.4122,2.4124,2.4125,2.4138,2.4137,2.4136,2.4135,2.4253,2.4257,2.4261,0,0,0,0,0,0,0,0,0,0,0,0,0,2.3821,2.3824,2.4013,2.4014,2.4015,2.4122,2.4124,2.4125,2.4138,2.4137,2.4135,2.4134,2.4252,2.4257,2.4262,0,0,0,0,0,0,0,0,0,0,0,0,0,2.3915,2.3825,2.4013,2.4035,2.4038,2.4122,2.4124,2.4126,2.4138,2.4137,2.4135,2.4133,2.425,2.4256,2.4262,2.4334,0,0,2.4281,2.4284,0,0,0,0,0,0,0,0,2.391,2.3922,2.403,2.4033,2.4037,2.4115,2.41,2.4196,2.4139,2.41,2.4135,2.4133,2.4209,2.4218,2.4243,2.4339,2.4345,2.4282,2.4286,2.4288,2.429,0,0,0,0,0,0,0,2.3903,2.3917,2.4056,2.4032,2.4036,2.4041,2.4053,2.4118,2.4163,2.4104,2.4105,2.4117,2.421,2.4237,2.4246,2.4346,2.4282,2.4287,2.4291,2.4294,2.4509,2.4511,0,0,0,0,0,0,2.3892,2.3912,2.4053,2.406,2.3968,2.4046,2.4059,2.4091,2.4162,2.4171,2.4118,2.4117,2.4227,2.4238,2.425,2.4339,2.4288,2.4294,2.4298,2.4507,2.451,2.4512,0,0,0,0,0,0,2.3887,2.3904,2.4048,2.3986,2.4005,2.4051,2.4088,2.4094,2.4121,2.4173,2.4182,2.4137,2.4226,2.4241,2.4313,2.4343,2.4297,2.4303,2.4505,2.4508,2.4511,2.4518,0,0,0,0,0,0,2.3882,2.3902,2.3928,2.3986,2.4008,2.4108,2.4089,2.4098,2.4131,2.413,2.4192,2.4201,2.4226,2.4303,2.4319,2.4351,2.4308,2.4503,2.4506,2.451,2.4515,2.452,2.4525,0,0,0,0,0,2.3875,2.3927,2.393,2.3947,2.4041,2.4109,2.4122,2.4147,2.4133,2.4161,2.4195,2.4199,2.4337,2.4311,2.4328,2.4363,2.4501,2.4505,2.451,2.4513,2.4519,2.4525,0,0,0,0,0,0,2.3873,2.3935,2.3939,2.4011,2.4054,2.4111,2.4147,2.4153,2.4204,2.4201,2.4233,2.4247,2.4317,2.4348,2.4317,2.4437,2.4418,2.4426,2.4414,2.4421,2.4426,2.4418,2.4313,0,0,0,0,0,2.3881,2.3929,2.3981,2.404,2.4061,2.41,2.4131,2.4147,2.4194,2.4213,2.4252,2.43,2.4354,2.4389,2.4442,2.4519,2.4534,2.4552,2.4557,2.4561,2.4568,2.4613,2.4621,2.4526,2.4526,2.4526,0,0,2.3898,2.3938,2.3966,2.4041,2.4076,2.4127,2.4116,2.417,2.4209,2.4222,2.4292,2.4323,2.4378,2.4453,2.4488,2.448,2.4598,2.4567,2.457,2.4575,2.4618,2.4627,2.4635,2.4529,2.4529,2.4528,0,0,2.3955,2.3989,2.4042,2.4078,2.4132,2.4157,2.417,2.4226,2.4246,2.4317,2.4328,2.4376,2.4468,2.4507,2.4539,2.4612,2.4619,2.4629,2.4656,2.4699,2.4707,2.4713,2.474,2.4749,2.4636,2.4636,2.4636,0,2.3969,2.4045,2.4069,2.4123,2.4156,2.4168,2.4224,2.4258,2.4327,2.4351,2.434,2.4457,2.4495,2.458,2.4598,2.4623,2.4641,2.4622,2.4703,2.471,2.4717,2.4743,2.4753,2.4637,2.4637,2.4636,2.4636,0,2.4061,2.4113,2.415,2.4214,2.4252,2.4306,2.4341,2.4376,2.4389,2.4416,2.4489,2.4535,2.4598,2.4619,2.4633,2.4707,2.47,2.4696,2.4678,2.4726,2.4752,2.4762,2.4638,2.4638,2.4637,2.4637,0,0,2.4119,2.4196,2.4209,2.4239,2.43,2.4342,2.4398,2.4458,2.4488,2.4536,2.4585,2.4663,2.466,2.4696,2.4715,2.4752,2.4808,2.4744,2.4746,2.4755,2.4894,2.4897,2.4908,2.4813,2.4815,2.4817,2.489,0,2.4183,2.4281,2.4305,2.4389,2.4439,2.4452,2.4501,2.4545,2.4573,2.462,2.4652,2.4707,2.4698,2.472,2.4758,2.4793,2.4837,2.4789,2.4861,2.4863,2.4846,2.4921,2.4923,2.499,2.4899,2.4901,2.4902,0,2.4271,2.4319,2.4407,2.4462,2.4484,2.4528,2.4585,2.463,2.4681,2.4698,2.4739,2.4754,2.4815,2.4794,2.488,2.4846,2.4877,2.4899,2.4903,2.4911,2.4885,2.4931,2.5011,2.5021,2.4918,2.4917,2.4915,0,2.4305,2.4392,2.4457,2.4482,2.4547,2.4578,2.4607,2.4656,2.4691,2.4742,2.4765,2.4823,2.4855,2.49,2.4932,2.4913,2.5015,2.4996,2.5033,2.5032,2.5054,2.5052,2.5141,2.5074,2.5073,2.5073,2.5073,0,2.4374,2.4428,2.4473,2.4512,2.4574,2.4602,2.4663,2.4693,2.4737,2.4784,2.48,2.4845,2.4883,2.4934,2.4959,2.5027,2.5041,2.5058,2.5064,2.5057,2.5055,2.5078,2.5074,2.5076,2.5075,2.5075,2.5074,0,2.4423,2.4454,2.4526,2.4582,2.4598,2.4641,2.469,2.473,2.4758,2.4818,2.4834,2.4879,2.4939,2.4975,2.5052,2.5069,2.5144,2.5148,2.5126,2.5129,2.5164,2.516,2.527,2.5287,2.5208,2.5209,2.521,0,2.4465,2.4506,2.4567,2.4599,2.4628,2.468,2.4715,2.4745,2.4781,2.4843,2.4876,2.4937,2.4987,2.5084,2.5124,2.5184,2.5189,2.5224,2.5199,2.519,2.5191,2.5188,2.5193,2.5229,2.5229,2.523,2.523,0,2.4536,2.455,2.4599,2.4654,2.4695,2.474,2.4786,2.4811,2.485,2.489,2.4951,2.499,2.5068,2.5129,2.5191,2.5224,2.5234,2.5238,2.525,2.5242,2.5228,2.5237,2.5138,2.5235,2.5235,2.5234,2.5234,2.5234,2.4583,2.4621,2.467,2.4724,2.4761,2.4803,2.4844,2.4877,2.4927,2.4991,2.5007,2.5071,2.5123,2.5208,2.5242,2.5294,2.5289,2.5306,2.531,2.5314,2.5315,2.522,2.5306,2.5306,2.5306,2.5306,2.5306,0,2.4656,2.4688,2.4737,2.4799,2.4843,2.4847,2.4898,2.4934,2.499,2.5036,2.5085,2.5156,2.5215,2.5261,2.5322,2.5355,2.5362,2.5371,2.5369,2.5376,2.5316,2.53,2.5364,2.5364,2.5364,2.5364,2.5364,2.5364,2.4699,2.4763,2.4783,2.4867,2.4899,2.4961,2.4989,2.5029,2.5066,2.5144,2.5192,2.5221,2.5268,2.5333,2.5388,2.54,2.5423,2.5431,2.5444,2.5387,2.538,2.5374,2.5359,2.5435,2.5435,2.5499,2.55,2.55]},{"header":{"parameterUnit":"m.s-1","parameterCategory":1,"la1":30.2991,"la2":30.254,"lo1":-89.0895,"lo2":-89.0444,"dy":0.0017,"dx":0.0017,"nx":28,"ny":28,"refTime":"2023-08-08T09:00:00:Z","depth":0,"parameterNumber":3,"parameterNumberName":"V-component_of_WINDS"},"data":[0,0,0,0,0,0,0,0,0,0,0,0,0,0,0,0,0,0,0,0,0,0,0,0,0,0,0,0,0,0,0,0,0,0,0,0,0,0,0,0,0,0,0,0,0,0,0,0,0,0,0,0,0,0,0,0,0,0,2.4648,2.4648,0,2.4663,2.4664,2.4664,2.467,2.467,2.467,2.467,2.4683,2.4683,2.4684,0,0,0,0,0,0,0,0,0,0,0,0,0,2.4619,2.4619,2.4648,2.4648,2.4648,2.4663,2.4664,2.4664,2.467,2.467,2.467,2.467,2.4683,2.4683,2.4684,0,0,0,0,0,0,0,0,0,0,0,0,0,2.4633,2.462,2.4648,2.4653,2.4654,2.4663,2.4664,2.4664,2.467,2.467,2.467,2.467,2.4683,2.4683,2.4684,2.4688,0,0,2.4685,2.4686,0,0,0,0,0,0,0,0,2.4632,2.4634,2.4652,2.4653,2.4654,2.4665,2.4658,2.4672,2.467,2.4664,2.467,2.467,2.4677,2.4678,2.4681,2.4689,2.4689,2.4685,2.4686,2.4686,2.4686,0,0,0,0,0,0,0,2.4631,2.4633,2.4654,2.4652,2.4653,2.4653,2.4655,2.4661,2.467,2.4664,2.4665,2.4667,2.4677,2.468,2.4681,2.4689,2.4685,2.4686,2.4686,2.4686,2.4698,2.4698,0,0,0,0,0,0,2.463,2.4632,2.4653,2.4654,2.4642,2.4654,2.4656,2.4661,2.467,2.4672,2.4667,2.4667,2.4679,2.468,2.4681,2.4685,2.4686,2.4687,2.4687,2.4698,2.4698,2.4698,0,0,0,0,0,0,2.4629,2.4631,2.4653,2.4643,2.4646,2.4654,2.466,2.4661,2.4665,2.4672,2.4673,2.4668,2.4679,2.4681,2.4686,2.4686,2.4687,2.4687,2.4698,2.4698,2.4698,2.4694,0,0,0,0,0,0,2.4628,2.4631,2.4634,2.4643,2.4647,2.4658,2.466,2.4662,2.4666,2.4666,2.4674,2.4675,2.4679,2.4685,2.4686,2.4687,2.4688,2.4698,2.4698,2.4698,2.4694,2.4694,2.4694,0,0,0,0,0,2.4627,2.4632,2.4634,2.4637,2.4651,2.4658,2.466,2.4666,2.4666,2.4668,2.4672,2.4675,2.4686,2.4685,2.4687,2.4688,2.4698,2.4698,2.4698,2.4694,2.4694,2.4694,0,0,0,0,0,0,2.4623,2.4634,2.4636,2.4645,2.4651,2.466,2.4663,2.4665,2.4671,2.4671,2.4676,2.4678,2.4682,2.4685,2.4685,2.4691,2.4692,2.4692,2.4688,2.4688,2.4688,2.4687,2.4688,0,0,0,0,0,2.4623,2.4629,2.4638,2.4645,2.4648,2.4655,2.4658,2.4662,2.4667,2.467,2.4675,2.4679,2.4683,2.4686,2.469,2.4695,2.4695,2.4695,2.4695,2.4695,2.4695,2.4695,2.4695,2.4698,2.4698,2.4698,0,0,2.4623,2.463,2.4634,2.4644,2.4649,2.4654,2.4657,2.4662,2.4665,2.467,2.4675,2.4679,2.4684,2.4688,2.469,2.4691,2.4694,2.4695,2.4695,2.4695,2.4695,2.4695,2.4694,2.4698,2.4698,2.4698,0,0,2.4626,2.4633,2.4638,2.4642,2.465,2.4654,2.4655,2.4663,2.4665,2.4671,2.4673,2.4676,2.4684,2.4687,2.469,2.469,2.4692,2.4691,2.469,2.469,2.4689,2.4689,2.4688,2.4688,2.4691,2.4691,2.4691,0,2.4625,2.4634,2.464,2.4645,2.4649,2.4653,2.4657,2.4661,2.4669,2.467,2.4671,2.4679,2.4684,2.4687,2.4687,2.469,2.4689,2.4691,2.4689,2.4689,2.4689,2.4688,2.4687,2.4691,2.4691,2.4691,2.4691,0,2.4632,2.4637,2.4641,2.4648,2.4652,2.4657,2.4661,2.4664,2.4667,2.467,2.4673,2.4678,2.4682,2.4684,2.4686,2.4687,2.4687,2.4689,2.469,2.4688,2.4687,2.4687,2.4691,2.4691,2.4691,2.4691,0,0,2.4634,2.4643,2.4644,2.4647,2.4654,2.4657,2.4661,2.4666,2.4667,2.4671,2.4673,2.4678,2.4679,2.4682,2.4684,2.4684,2.4682,2.4686,2.4686,2.4684,2.4681,2.4679,2.4679,2.4684,2.4683,2.4683,2.468,0,2.4637,2.4645,2.4649,2.4654,2.4658,2.4661,2.4663,2.4667,2.4669,2.4672,2.4674,2.4677,2.4679,2.468,2.468,2.4683,2.4682,2.4683,2.4684,2.4684,2.4682,2.4679,2.4677,2.4674,2.468,2.468,2.468,0,2.4642,2.4646,2.4652,2.4656,2.4658,2.4661,2.4664,2.4667,2.4669,2.4671,2.4673,2.4675,2.4677,2.4678,2.4679,2.4679,2.4679,2.468,2.468,2.468,2.4681,2.4677,2.4674,2.4673,2.4679,2.468,2.468,0,2.4641,2.4648,2.4652,2.4654,2.466,2.4661,2.4663,2.4666,2.4668,2.467,2.467,2.4673,2.4674,2.4674,2.4676,2.4677,2.4676,2.4678,2.4676,2.4676,2.4676,2.4676,2.4671,2.4677,2.4677,2.4677,2.4677,0,2.4643,2.4646,2.4651,2.4653,2.4656,2.4659,2.4661,2.4663,2.4666,2.4667,2.4669,2.467,2.4673,2.4673,2.4675,2.4674,2.4675,2.4675,2.4675,2.4674,2.4674,2.4674,2.4674,2.4677,2.4677,2.4677,2.4677,0,2.4643,2.4647,2.4651,2.4655,2.4656,2.4657,2.466,2.4661,2.4663,2.4665,2.4665,2.4668,2.4668,2.467,2.4671,2.4672,2.467,2.4671,2.4669,2.4669,2.4667,2.4667,2.4662,2.466,2.4668,2.4668,2.4668,0,2.4644,2.4647,2.4651,2.4652,2.4654,2.4656,2.4657,2.466,2.4661,2.4663,2.4663,2.4664,2.4665,2.4665,2.4666,2.4666,2.4667,2.4665,2.4667,2.4665,2.4665,2.4665,2.4664,2.4664,2.4664,2.4664,2.4664,0,2.4645,2.4646,2.4649,2.4651,2.4653,2.4655,2.4656,2.4657,2.4659,2.466,2.4661,2.4661,2.4662,2.4662,2.4661,2.4662,2.4663,2.4663,2.4663,2.4662,2.466,2.466,2.4667,2.4664,2.4664,2.4664,2.4664,2.4664,2.4645,2.4646,2.4649,2.4651,2.4652,2.4653,2.4654,2.4655,2.4656,2.4657,2.4658,2.4658,2.4658,2.4658,2.4658,2.4657,2.4658,2.4657,2.4657,2.4656,2.4655,2.4661,2.4657,2.4657,2.4657,2.4657,2.4657,0,2.4645,2.4646,2.4648,2.465,2.4651,2.4652,2.4653,2.4653,2.4654,2.4654,2.4654,2.4654,2.4653,2.4653,2.4652,2.4651,2.4651,2.4651,2.465,2.465,2.4655,2.4656,2.465,2.465,2.465,2.465,2.465,2.465,2.4645,2.4647,2.4647,2.4648,2.4649,2.465,2.465,2.465,2.465,2.465,2.4649,2.465,2.4649,2.4648,2.4646,2.4646,2.4645,2.4644,2.4644,2.4649,2.465,2.465,2.4651,2.4644,2.4644,2.4639,2.4639,2.4639]}]]